Time,TemperatureF,DewpointF,PressureIn,WindDirection,WindDirectionDegrees,WindSpeedMPH,WindSpeedGustMPH,Humidity,HourlyPrecipIn,Conditions,Clouds,dailyrainin,SoftwareType,DateUTC
2013-05-30 00:11:00,64.1,60.0,30.07,SSE,150,0.0,0.0,87,0.00,,,0.00,weatherlink.com 1.10,2013-05-30 04:11:00,
2013-05-30 00:26:00,64.2,60.0,30.08,NNE,27,2.0,6.0,87,0.00,,,0.00,weatherlink.com 1.10,2013-05-30 04:26:00,
2013-05-30 00:41:00,64.4,60.0,30.08,NW,317,2.0,2.0,86,0.00,,,0.00,weatherlink.com 1.10,2013-05-30 04:41:00,
2013-05-30 00:56:00,64.2,60.0,30.08,SW,224,0.0,1.0,86,0.00,,,0.00,weatherlink.com 1.10,2013-05-30 04:56:00,
2013-05-30 01:11:00,63.7,60.0,30.07,SSE,159,0.0,1.0,88,0.00,,,0.00,weatherlink.com 1.10,2013-05-30 05:11:00,
2013-05-30 01:26:00,63.7,60.0,30.07,SW,226,0.0,0.0,88,0.00,,,0.00,weatherlink.com 1.10,2013-05-30 05:26:00,
2013-05-30 01:41:00,63.6,60.0,30.07,SW,219,0.0,1.0,88,0.00,,,0.00,weatherlink.com 1.10,2013-05-30 05:41:00,
2013-05-30 01:56:00,63.4,60.0,30.07,South,187,0.0,0.0,88,0.00,,,0.00,weatherlink.com 1.10,2013-05-30 05:56:00,
2013-05-30 02:11:00,63.1,60.0,30.07,South,187,0.0,0.0,89,0.00,,,0.00,weatherlink.com 1.10,2013-05-30 06:11:00,
2013-05-30 02:26:00,63.0,59.0,30.07,South,188,0.0,0.0,88,0.00,,,0.00,weatherlink.com 1.10,2013-05-30 06:26:00,
2013-05-30 02:41:00,62.8,60.0,30.08,South,187,0.0,0.0,89,0.00,,,0.00,weatherlink.com 1.10,2013-05-30 06:41:00,
2013-05-30 02:56:00,62.5,59.0,30.09,South,187,0.0,0.0,89,0.00,,,0.00,weatherlink.com 1.10,2013-05-30 06:56:00,
2013-05-30 03:13:00,62.9,59.0,30.09,SE,143,0.0,1.0,88,0.00,,,0.00,weatherlink.com 1.10,2013-05-30 07:13:00,
2013-05-30 03:34:00,62.9,59.0,30.09,NW,309,0.0,2.0,87,0.00,,,0.00,weatherlink.com 1.10,2013-05-30 07:34:00,
2013-05-30 03:42:00,63.1,59.0,30.09,NW,309,0.0,2.0,86,0.00,,,0.00,weatherlink.com 1.10,2013-05-30 07:42:00,
2013-05-30 03:57:00,62.9,59.0,30.09,NW,312,0.0,1.0,87,0.00,,,0.00,weatherlink.com 1.10,2013-05-30 07:57:00,
2013-05-30 04:12:00,62.5,59.0,30.09,WSW,247,0.0,2.0,88,0.00,,,0.00,weatherlink.com 1.10,2013-05-30 08:12:00,
2013-05-30 04:27:00,62.5,59.0,30.10,NW,316,0.0,1.0,89,0.00,,,0.00,weatherlink.com 1.10,2013-05-30 08:27:00,
2013-05-30 04:42:00,62.6,60.0,30.11,NNE,13,0.0,1.0,90,0.00,,,0.00,weatherlink.com 1.10,2013-05-30 08:42:00,
2013-05-30 04:57:00,63.0,60.0,30.12,NNW,343,0.0,2.0,89,0.00,,,0.00,weatherlink.com 1.10,2013-05-30 08:57:00,
2013-05-30 05:11:00,63.3,60.0,30.12,West,278,0.0,0.0,89,0.00,,,0.00,weatherlink.com 1.10,2013-05-30 09:11:00,
2013-05-30 05:26:00,63.6,60.0,30.13,WNW,295,0.0,0.0,89,0.00,,,0.00,weatherlink.com 1.10,2013-05-30 09:26:00,
2013-05-30 05:41:00,64.1,61.0,30.13,South,186,0.0,2.0,89,0.00,,,0.00,weatherlink.com 1.10,2013-05-30 09:41:00,
2013-05-30 05:56:00,64.3,61.0,30.13,WNW,297,0.0,1.0,89,0.00,,,0.00,weatherlink.com 1.10,2013-05-30 09:56:00,
2013-05-30 06:11:00,64.3,61.0,30.14,WNW,285,0.0,0.0,89,0.00,,,0.00,weatherlink.com 1.10,2013-05-30 10:11:00,
2013-05-30 06:26:00,64.4,61.0,30.14,WNW,298,0.0,0.0,89,0.00,,,0.00,weatherlink.com 1.10,2013-05-30 10:26:00,
2013-05-30 06:41:00,64.4,61.0,30.14,WNW,298,0.0,0.0,89,0.00,,,0.00,weatherlink.com 1.10,2013-05-30 10:41:00,
2013-05-30 06:56:00,64.5,61.0,30.15,NNW,341,0.0,0.0,89,0.00,,,0.00,weatherlink.com 1.10,2013-05-30 10:56:00,
2013-05-30 07:12:00,64.5,61.0,30.15,NNW,340,0.0,1.0,89,0.00,,,0.00,weatherlink.com 1.10,2013-05-30 11:12:00,
2013-05-30 07:27:00,64.5,61.0,30.16,NNW,330,0.0,0.0,89,0.00,,,0.00,weatherlink.com 1.10,2013-05-30 11:27:00,
2013-05-30 07:42:00,64.7,62.0,30.16,NNW,330,0.0,0.0,89,0.00,,,0.00,weatherlink.com 1.10,2013-05-30 11:42:00,
2013-05-30 07:57:00,65.4,62.0,30.16,NNE,23,0.0,0.0,88,0.00,,,0.00,weatherlink.com 1.10,2013-05-30 11:57:00,
2013-05-30 08:12:00,66.3,62.0,30.16,NW,308,0.0,0.0,87,0.00,,,0.00,weatherlink.com 1.10,2013-05-30 12:12:00,
2013-05-30 08:27:00,66.9,62.0,30.16,ENE,70,0.0,0.0,85,0.00,,,0.00,weatherlink.com 1.10,2013-05-30 12:27:00,
2013-05-30 08:42:00,66.9,62.0,30.16,SE,136,0.0,2.0,84,0.00,,,0.00,weatherlink.com 1.10,2013-05-30 12:42:00,
2013-05-30 08:57:00,66.9,62.0,30.16,SSE,156,0.0,5.0,84,0.00,,,0.00,weatherlink.com 1.10,2013-05-30 12:57:00,
2013-05-30 09:12:00,67.4,62.0,30.16,SW,214,0.0,2.0,83,0.00,,,0.00,weatherlink.com 1.10,2013-05-30 13:12:00,
2013-05-30 09:27:00,67.9,63.0,30.17,WSW,250,1.0,2.0,83,0.00,,,0.00,weatherlink.com 1.10,2013-05-30 13:27:00,
2013-05-30 09:42:00,68.4,62.0,30.17,SSE,153,0.0,2.0,81,0.00,,,0.00,weatherlink.com 1.10,2013-05-30 13:42:00,
2013-05-30 09:57:00,69.4,63.0,30.16,SE,135,0.0,2.0,79,0.00,,,0.00,weatherlink.com 1.10,2013-05-30 13:57:00,
2013-05-30 10:12:00,70.4,63.0,30.16,NNW,333,0.0,2.0,77,0.00,,,0.00,weatherlink.com 1.10,2013-05-30 14:12:00,
2013-05-30 10:27:00,71.8,63.0,30.16,SE,141,0.0,0.0,74,0.00,,,0.00,weatherlink.com 1.10,2013-05-30 14:27:00,
2013-05-30 10:42:00,74.5,64.0,30.15,ESE,108,0.0,-999.0,70,-99.99,,,0.00,weatherlink.com 1.10,2013-05-30 14:42:00,
2013-05-30 10:57:00,76.3,63.0,30.14,South,185,0.0,2.0,64,0.00,,,0.00,weatherlink.com 1.10,2013-05-30 14:57:00,
2013-05-30 11:12:00,77.6,63.0,30.14,WSW,242,1.0,1.0,62,0.00,,,0.00,weatherlink.com 1.10,2013-05-30 15:12:00,
2013-05-30 11:27:00,78.4,64.0,30.14,SE,143,1.0,2.0,61,0.00,,,0.00,weatherlink.com 1.10,2013-05-30 15:27:00,
2013-05-30 11:42:00,79.9,65.0,30.14,East,87,1.0,2.0,60,0.00,,,0.00,weatherlink.com 1.10,2013-05-30 15:42:00,
2013-05-30 11:57:00,80.1,64.0,30.14,NNE,12,1.0,3.0,59,0.00,,,0.00,weatherlink.com 1.10,2013-05-30 15:57:00,
2013-05-30 12:12:00,79.8,64.0,30.14,NW,316,2.0,3.0,58,0.00,,,0.00,weatherlink.com 1.10,2013-05-30 16:12:00,
2013-05-30 12:27:00,79.9,63.0,30.13,SE,125,0.0,2.0,57,0.00,,,0.00,weatherlink.com 1.10,2013-05-30 16:27:00,
2013-05-30 12:42:00,80.0,62.0,30.13,East,84,0.0,3.0,54,0.00,,,0.00,weatherlink.com 1.10,2013-05-30 16:42:00,
2013-05-30 12:57:00,80.4,62.0,30.12,NNW,347,2.0,5.0,54,0.00,,,0.00,weatherlink.com 1.10,2013-05-30 16:57:00,
2013-05-30 13:12:00,81.1,62.0,30.12,East,82,1.0,3.0,52,0.00,,,0.00,weatherlink.com 1.10,2013-05-30 17:12:00,
2013-05-30 13:27:00,81.7,62.0,30.12,SW,219,1.0,2.0,52,0.00,,,0.00,weatherlink.com 1.10,2013-05-30 17:27:00,
2013-05-30 13:42:00,81.6,61.0,30.12,West,268,2.0,2.0,50,0.00,,,0.00,weatherlink.com 1.10,2013-05-30 17:42:00,
2013-05-30 13:58:00,82.3,63.0,30.11,NNE,25,1.0,3.0,52,0.00,,,0.00,weatherlink.com 1.10,2013-05-30 17:58:00,
2013-05-30 14:13:00,82.7,61.0,30.11,East,96,1.0,3.0,48,0.00,,,0.00,weatherlink.com 1.10,2013-05-30 18:13:00,
2013-05-30 14:28:00,82.7,62.0,30.10,WNW,302,0.0,2.0,49,0.00,,,0.00,weatherlink.com 1.10,2013-05-30 18:28:00,
2013-05-30 14:43:00,83.6,62.0,30.10,NE,53,0.0,3.0,48,0.00,,,0.00,weatherlink.com 1.10,2013-05-30 18:43:00,
2013-05-30 15:13:00,83.5,61.0,30.09,NNW,336,1.0,2.0,46,0.00,,,0.00,weatherlink.com 1.10,2013-05-30 19:13:00,
2013-05-30 15:28:00,82.9,63.0,30.09,East,90,2.0,3.0,52,0.00,,,0.00,weatherlink.com 1.10,2013-05-30 19:28:00,
2013-05-30 15:44:00,81.9,63.0,30.09,ESE,105,0.0,2.0,53,0.00,,,0.00,weatherlink.com 1.10,2013-05-30 19:44:00,
2013-05-30 15:58:00,82.3,61.0,30.08,West,269,1.0,2.0,49,0.00,,,0.00,weatherlink.com 1.10,2013-05-30 19:58:00,
2013-05-30 16:13:00,80.5,62.0,30.08,East,86,0.0,3.0,53,0.00,,,0.00,weatherlink.com 1.10,2013-05-30 20:13:00,
2013-05-30 16:28:00,81.0,62.0,30.07,ESE,103,0.0,3.0,52,0.00,,,0.00,weatherlink.com 1.10,2013-05-30 20:28:00,
2013-05-30 16:43:00,80.2,62.0,30.07,ESE,108,0.0,2.0,54,0.00,,,0.00,weatherlink.com 1.10,2013-05-30 20:43:00,
2013-05-30 16:58:00,79.2,62.0,30.07,SSE,153,0.0,1.0,55,0.00,,,0.00,weatherlink.com 1.10,2013-05-30 20:58:00,
2013-05-30 17:13:00,79.4,61.0,30.07,ESE,123,0.0,1.0,54,0.00,,,0.00,weatherlink.com 1.10,2013-05-30 21:13:00,
2013-05-30 17:28:00,78.3,62.0,30.07,NNW,343,0.0,2.0,57,0.00,,,0.00,weatherlink.com 1.10,2013-05-30 21:28:00,
2013-05-30 17:43:00,76.0,61.0,30.07,ESE,115,0.0,2.0,59,0.00,,,0.00,weatherlink.com 1.10,2013-05-30 21:43:00,
2013-05-30 17:58:00,75.1,62.0,30.06,ESE,108,0.0,0.0,63,0.00,,,0.00,weatherlink.com 1.10,2013-05-30 21:58:00,
2013-05-30 18:13:00,74.8,61.0,30.06,NNE,18,0.0,2.0,62,0.00,,,0.00,weatherlink.com 1.10,2013-05-30 22:13:00,
2013-05-30 18:28:00,74.9,61.0,30.07,WNW,303,0.0,1.0,63,0.00,,,0.00,weatherlink.com 1.10,2013-05-30 22:28:00,
2013-05-30 18:58:00,73.8,62.0,30.07,NW,318,0.0,0.0,66,0.00,,,0.00,weatherlink.com 1.10,2013-05-30 22:58:00,
2013-05-30 19:13:00,72.8,62.0,30.06,NW,323,0.0,1.0,68,0.00,,,0.00,weatherlink.com 1.10,2013-05-30 23:13:00,
2013-05-30 19:28:00,72.0,62.0,30.06,West,259,0.0,1.0,70,0.00,,,0.00,weatherlink.com 1.10,2013-05-30 23:28:00,
2013-05-30 19:43:00,71.3,61.0,30.06,SE,136,1.0,1.0,69,0.00,,,0.00,weatherlink.com 1.10,2013-05-30 23:43:00,
2013-05-30 19:58:00,71.2,62.0,30.06,WNW,294,0.0,3.0,72,0.00,,,0.00,weatherlink.com 1.10,2013-05-30 23:58:00,
2013-05-30 20:13:00,70.8,61.0,30.06,NNW,339,1.0,4.0,72,0.00,,,0.00,weatherlink.com 1.10,2013-05-31 00:13:00,
2013-05-30 20:28:00,70.5,61.0,30.06,NNW,340,0.0,2.0,73,0.00,,,0.00,weatherlink.com 1.10,2013-05-31 00:28:00,
2013-05-30 20:43:00,69.7,61.0,30.06,NNW,338,0.0,0.0,75,0.00,,,0.00,weatherlink.com 1.10,2013-05-31 00:43:00,
2013-05-30 20:58:00,69.1,61.0,30.07,NW,323,0.0,0.0,76,0.00,,,0.00,weatherlink.com 1.10,2013-05-31 00:58:00,
2013-05-30 21:13:00,68.3,61.0,30.06,SE,124,0.0,0.0,78,0.00,,,0.00,weatherlink.com 1.10,2013-05-31 01:13:00,
2013-05-30 21:28:00,67.8,61.0,30.07,NNW,343,0.0,2.0,79,0.00,,,0.00,weatherlink.com 1.10,2013-05-31 01:28:00,
2013-05-30 21:43:00,67.4,61.0,30.08,NNW,343,0.0,0.0,80,0.00,,,0.00,weatherlink.com 1.10,2013-05-31 01:43:00,
2013-05-30 21:58:00,66.8,61.0,30.08,NNW,343,0.0,0.0,81,0.00,,,0.00,weatherlink.com 1.10,2013-05-31 01:58:00,
2013-05-30 22:13:00,66.2,61.0,30.08,NNW,343,0.0,0.0,82,0.00,,,0.00,weatherlink.com 1.10,2013-05-31 02:13:00,
2013-05-30 22:28:00,66.2,61.0,30.08,SSE,155,0.0,0.0,83,0.00,,,0.00,weatherlink.com 1.10,2013-05-31 02:28:00,
2013-05-30 22:43:00,65.7,61.0,30.08,SSE,155,0.0,0.0,84,0.00,,,0.00,weatherlink.com 1.10,2013-05-31 02:43:00,
2013-05-30 22:58:00,65.1,61.0,30.08,South,172,0.0,0.0,85,0.00,,,0.00,weatherlink.com 1.10,2013-05-31 02:58:00,
2013-05-30 23:13:00,65.0,61.0,30.09,South,172,0.0,0.0,86,0.00,,,0.00,weatherlink.com 1.10,2013-05-31 03:13:00,
2013-05-30 23:28:00,65.1,61.0,30.09,SW,224,0.0,0.0,85,0.00,,,0.00,weatherlink.com 1.10,2013-05-31 03:28:00,
2013-05-30 23:43:00,65.4,61.0,30.09,WNW,291,0.0,0.0,85,0.00,,,0.00,weatherlink.com 1.10,2013-05-31 03:43:00,
2013-05-30 23:58:00,65.4,61.0,30.09,WNW,291,0.0,0.0,84,0.00,,,0.00,weatherlink.com 1.10,2013-05-31 03:58:00,